SCP
0 0 0 0 0 0 0 0 0 0 0 0 0 0 0 0 0 0 0 0 0 0 0 0 0 0 0 0 0 0 0 0 0 0 0 0 0 0 0 0 0 0 0 0
0 0 0 0 0 0 0 0 0 0 0 0 0 0 0 0 0 0 0 0 0 0 0 0 0 0 0 0 0 0 0 0 0 0 0 0 0 0 0 0 0 0 0 0
0 0 0 0 0 0 0 0 0 0 0 0 0 0 0 0 0 0 0 0 0 0 0 0 0 0 0 0 0 0 0 0 0 0 0 0 0 0 0 0 0 0 0 0
0 0 0 0 0 0 0 0 0 0 0 0 0 0 0 0 0 0 0 0 0 0 0 0 0 0 0 0 0 0 0 0 0 0 0 0 0 0 0 0 0 0 0 0
0 0 0 0 0 0 0 0 0 0 0 0 0 0 0 0 0 0 0 0 0 0 0 0 0 0 0 0 0 0 0 0 0 0 0 0 0 0 0 0 0 0 0 0
0 0 0 0 0 0 0 0 0 0 0 0 0 0 0 0 0 0 0 0 0 0 0 0 0 0 0 0 0 0 0 0 0 0 0 0 0 0 0 0 0 0 0 0
0 0 0 0 0 0 0 0 0 0 0 0 0 0 0 0 0 0 0 0 0 0 0 0 0 0 0 0 0 0 0 0 0 0 0 0 0 0 0 0 0 0 0 0
0 0 0 0 0 0 0 0 0 0 0 0 0 0 0 0 0 0 0 0 0 0 0 0 0 0 0 0 0 0 0 0 0 0 0 0 0 0 0 0 0 0 0 0
0 0 0 0 0 0 0 0 0 0 0 0 0 0 0 0 0 0 0 0 0 0 0 0 0 0 0 0 0 0 0 0 0 0 0 0 0 0 0 0 0 0 0 0
0 0 0 0 0 0 0 0 0 0 0 0 0 0 0 0 0 0 0 0 0 0 0 0 0 0 0 0 0 0 0 0 0 0 0 0 0 0 0 0 0 0 0 0
-0 0 0 0 0 0 0 0 0 0 0 0 0 0 0 0 0 0 0 0 0 0 0 0 0 0 0 0 0 0 0 0 0 0 0 0 0 0 0 0 0 0 0 0
0 0 0 0 0 0 0 0 0 0 0 0 0 0 0 0 0 0 0 0 0 0 0 0 0 0 0 0 0 0 0 0 0 0 0 0 0 0 0 0 0 0 0 0
0 0 0 0 0 0 0 0 0 0 0 0 0 0 0 0 0 0 0 0 0 0 0 0 0 0 0 0 0 0 0 0 0 0 0 0 0 0 0 0 0 0 0 0
0 0 0 0 0 0 0 0 0 0 0 0 0 0 0 0 0 0 0 0 0 0 0 0 0 0 0 0 0 0 0 0 0 0 0 0 0 0 0 0 0 0 0 0
0 0 0 0 0 0 0 0 0 0 0 0 0 0 0 0 0 0 0 0 0 0 0 0 0 0 0 0 0 0 0 0 0 0 0 0 0 0 0 0 0 0 0 0
0 0 0 0 0 0 0 0 0 0 0 0 0 0 0 0 0 0 0 0 0 0 0 0 0 0 0 0 0 0 0 0 0 0 0 0 0 0 0 0 0 0 0 0
0 0 0 0 0 0 0 0 0 0 0 0 0 0 0 0 0 0 0 0 0 0 0 0 0 0 0 0 0 0 0 0 0 0 0 0 0 0 0 0 0 0 0 0
0 0 0 0 0 0 0 0 0 0 0 0 0 0 0 0 0 0 0 0 0 0 0 0 0 0 0 0 0 0 0 0 0 0 0 0 0 0 0 0 0 0 0 0
0 0 0 0 0 0 0 0 0 0 0 0 0 0 0 0 0 0 0 0 0 0 0 0 0 0 0 0 0 0 0 0 0 0 0 0 0 0 0 0 0 0 0 0
0 0 0 0 0 0 0 0 0 0 0 0 0 0 0 0 0 0 0 0 0 0 0 0 0 0 0 0 0 0 0 0 0 0 0 0 0 0 0 0 0 0 0 0
0 0 0 0 0 0 0 0 0 0 0 0 0 0 0 0 0 0 0 0 0 0 0 0 0 0 0 0 0 0 0 0 0 0 0 0 0 0 0 0 0 0 0 0
0 0 0 0 0 0 0 0 0 0 0 0 0 0 0 0 0 0 0 -0 -0 0 0 0 0 0 0 0 0 0 0 0 0 0 0 0 0 0 0 0 0 0 0 0
0 -0 0 -0 0 0 -0 0 0 0 0 0 0 0 0 0 -0 -0 -0 -0 -0 0 0 0 0 0 0 0 0 0 0 0 0 0 0 0 0 0 0 0 0 0 0 0
-0 -0 -0 -0 -0 -0 -0 -0 0 0 -0 -0 -0 -0 -0 -0 0 0 0 0 0 0 0 0 0 0 0 0 0 0 0 0 0 0 0 0 0 0 0 0 0 0 0 0
-0 -0 -0 -0 -0 -0 -0 -0 -0 -0 -0 -0 0 0 0 0 0 0 0 0 0 0 0 0 0 0 0 0 0 0 0 0 0 0 0 0 0 0 0 0 0 0 0 0
0 0 0 0 -0 0 -0 0 0 0 0 0 -0 -0 -0 -0 0 0 0 0 0 0 0 0 0 0 0 0 0 0 0 0 0 0 0 0 0 0 0 0 0 0 0 0
Wind_Speed_500mb
16 8 18 18 4 10 13 14 17 15 5 13 25 20 16 32 53 51 54 54 49 41 27 25 26 25 24 21 15 9 13 17 17 14 2 8 10 14 13 12 15 18 20 25
7 18 9 11 15 11 7 13 11 9 27 10 7 17 15 32 25 40 44 44 42 32 32 33 32 31 33 32 33 28 19 7 8 5 5 3 5 9 13 12 13 19 17 20
10 4 28 14 15 23 13 14 12 16 17 17 8 4 8 12 35 43 44 41 38 36 37 38 39 41 41 42 42 39 36 28 19 7 7 7 4 4 6 12 18 23 27 29
11 14 20 16 17 19 28 12 11 29 12 9 12 5 10 12 14 25 35 37 34 34 37 42 44 47 49 49 46 45 44 42 38 32 28 25 25 28 29 26 23 20 22 23
12 14 11 11 12 17 8 31 11 21 10 10 11 7 8 25 16 15 25 32 33 33 38 42 44 45 45 44 44 44 42 42 41 37 35 33 32 30 25 22 20 21 23 24
13 12 13 14 5 9 15 22 17 15 6 7 12 9 9 11 24 17 26 30 29 31 35 40 42 42 44 43 42 41 39 41 38 35 33 32 30 28 25 26 26 29 30 31
8 9 4 10 13 20 33 26 6 6 6 5 13 6 3 6 16 34 34 35 31 30 32 35 37 39 41 40 39 39 36 37 35 32 31 31 30 28 29 31 34 36 39 42
10 9 12 6 11 17 30 11 10 12 13 8 13 14 10 7 35 45 42 39 33 29 30 33 33 34 35 35 34 32 32 31 31 30 30 31 31 35 36 37 39 40 42 46
10 1 6 4 4 14 12 16 8 9 4 8 8 6 5 11 16 37 37 35 31 26 26 29 28 29 29 28 29 28 28 29 29 30 30 31 33 34 36 38 40 42 42 44
5 7 3 2 4 5 10 16 8 4 11 6 6 9 9 23 21 19 30 34 31 27 24 25 25 25 25 24 25 24 27 29 32 33 33 35 36 37 38 40 42 43 45 47
13 2 8 7 4 9 5 8 4 8 6 8 9 7 12 32 29 25 35 34 30 26 23 23 22 21 21 20 22 24 25 27 29 30 31 32 34 34 35 37 39 41 43 46
5 5 7 7 6 3 3 7 9 8 5 4 6 4 3 24 33 46 41 33 28 22 21 18 15 13 13 19 24 25 26 25 23 25 27 29 31 32 33 35 38 41 43 46
4 5 5 7 4 7 6 4 5 9 6 3 9 6 7 35 37 44 39 31 27 22 19 13 6 4 13 23 23 22 19 21 25 29 32 33 33 34 36 39 40 42 43 44
2 8 4 6 5 6 9 7 3 8 7 7 5 16 15 24 24 38 34 29 27 25 24 15 5 6 15 17 21 25 28 31 34 36 35 34 36 38 39 38 39 39 40 42
6 8 6 4 9 8 5 11 9 5 7 8 16 32 32 26 27 44 37 32 32 29 21 13 5 10 17 23 27 29 31 32 32 32 33 35 37 38 38 37 36 37 39 41
4 4 3 15 20 13 13 9 17 8 8 13 19 4 11 34 42 38 35 32 32 30 20 11 8 17 27 29 29 29 32 34 35 37 38 38 39 38 35 35 36 38 39 41
5 9 6 4 9 11 9 5 5 6 3 14 13 11 27 21 36 41 34 31 31 31 21 11 18 28 28 28 28 30 31 31 32 33 33 34 31 26 25 25 28 32 37 39
7 6 5 5 7 4 9 2 2 5 3 8 11 22 35 40 35 29 26 25 25 28 18 17 26 30 29 28 30 32 33 34 34 34 34 29 21 18 20 26 32 37 41 45
10 7 6 8 5 8 9 7 10 9 9 8 17 17 34 34 23 11 21 19 20 21 19 27 31 29 30 30 31 33 35 37 37 36 31 22 18 17 21 26 32 38 42 47
9 12 8 7 11 10 7 5 6 8 7 33 32 34 34 27 7 8 16 14 15 20 28 32 30 30 29 29 33 35 38 39 38 34 25 19 17 19 23 28 33 39 46 51
7 8 8 3 3 13 9 12 10 12 9 35 48 48 40 11 10 13 12 18 25 27 30 31 30 30 31 33 36 39 41 39 36 29 23 20 19 21 26 30 37 44 50 55
7 8 4 5 8 10 17 10 14 4 4 30 46 45 40 20 15 11 16 25 27 28 32 31 31 31 34 36 39 41 41 38 32 26 24 22 23 26 30 34 40 46 52 58
3 10 7 13 9 8 33 6 16 4 18 29 43 44 34 24 17 16 22 25 28 32 33 33 34 33 36 39 41 42 40 36 31 28 26 26 28 31 34 39 44 50 54 60
7 12 5 6 7 22 28 26 21 16 18 35 42 42 33 26 21 26 27 29 32 34 35 36 35 35 38 40 40 40 40 36 33 32 30 31 34 36 38 42 47 53 56 60
9 17 9 8 15 7 25 39 42 36 27 34 39 38 35 30 33 32 30 31 35 36 35 34 35 36 38 39 39 39 38 35 34 35 34 35 39 41 43 45 50 55 54 56
26 15 10 11 22 23 10 28 30 40 38 39 42 43 40 38 34 29 34 37 35 34 33 35 37 41 39 40 37 37 35 35 36 36 36 39 42 43 46 50 53 50 52 49
Wind_Direction_500mb
190 165 214 179 225 139 150 151 143 185 236 11 85 69 41 58 78 77 79 82 78 73 67 66 73 75 76 80 88 127 207 226 240 242 16 334 314 311 302 320 333 316 321 317
158 223 208 198 196 225 173 149 155 110 162 102 139 76 57 55 65 81 84 81 82 79 71 73 75 74 71 73 69 68 71 101 199 200 105 46 330 347 1 8 343 320 322 332
170 212 191 208 199 205 204 167 169 134 121 103 79 34 28 45 69 77 82 84 82 81 77 76 77 75 75 73 71 68 67 71 75 85 165 144 45 349 324 322 327 330 323 314
214 257 181 203 226 195 209 122 123 139 126 172 141 201 163 126 76 69 79 82 84 87 86 83 81 79 77 74 76 74 75 76 74 69 70 67 67 62 52 46 40 34 27 25
212 173 174 192 211 175 177 135 113 91 99 125 174 150 177 142 141 119 94 90 87 85 87 85 83 82 81 82 77 75 73 71 69 68 69 68 66 60 52 46 35 27 18 6
183 186 158 186 85 120 103 103 50 63 73 206 191 137 173 181 151 130 111 103 95 92 91 88 86 86 83 79 76 73 70 69 66 59 56 53 50 44 33 27 19 14 6 1
147 162 154 153 105 111 117 135 128 133 191 189 184 126 84 93 133 135 131 118 110 104 96 91 86 81 80 78 72 69 64 61 58 53 47 43 36 27 18 11 5 357 354 350
158 194 174 187 171 168 160 170 141 162 174 154 121 168 181 156 123 130 130 125 120 110 101 91 82 78 74 70 66 62 56 53 44 37 31 25 19 15 9 3 358 353 350 347
164 91 27 95 84 156 158 208 114 78 16 101 141 116 48 154 132 132 133 130 124 115 103 94 89 81 74 67 60 50 42 34 25 19 12 8 5 0 357 353 349 345 343 339
191 130 254 327 85 34 166 159 143 110 167 142 177 176 189 176 168 157 142 137 131 125 113 103 92 83 73 60 49 33 25 16 9 1 355 355 352 349 346 342 339 339 339 337
153 22 145 103 21 161 120 149 107 121 142 141 143 228 191 175 167 159 152 144 139 135 126 114 99 82 63 44 27 7 1 358 349 343 345 345 342 341 341 339 339 339 340 337
223 104 90 113 270 261 266 143 131 132 225 48 92 275 77 155 150 148 150 145 142 140 132 119 104 82 42 14 1 348 353 351 346 345 344 348 345 346 345 346 344 342 341 337
327 117 80 109 17 355 79 47 115 104 78 182 131 228 90 130 141 154 151 148 147 144 142 132 118 43 359 347 342 342 345 351 344 345 348 348 344 346 345 345 342 340 340 338
335 62 188 151 164 149 159 163 93 113 103 161 178 148 166 154 150 153 157 156 156 154 152 161 174 333 338 339 340 345 349 344 344 343 343 341 342 344 344 344 343 342 342 343
39 79 59 51 351 116 116 132 129 93 124 143 169 170 182 171 157 161 160 162 162 165 180 191 240 317 331 335 337 338 335 333 334 335 337 339 342 342 341 342 347 353 355 356
96 122 8 26 2 66 94 98 100 89 94 70 137 125 137 160 161 158 168 175 180 179 193 209 282 328 328 328 331 332 331 332 333 334 334 335 336 338 344 352 360 2 1 359
79 132 93 314 345 0 28 247 122 123 109 143 161 193 147 146 157 167 172 185 192 194 202 244 305 319 320 321 323 323 324 324 322 323 325 326 329 338 348 358 1 1 359 356
104 81 75 159 36 42 242 141 27 148 107 120 97 146 156 158 161 164 183 190 186 198 231 283 310 314 313 312 314 317 319 318 319 320 321 325 332 346 358 360 359 356 352 349
33 103 62 120 143 282 305 216 168 156 233 204 138 127 140 143 147 181 210 209 210 220 255 294 303 301 302 307 313 316 316 316 315 316 318 320 329 340 347 349 347 345 344 343
33 59 104 65 121 185 241 181 136 94 307 189 160 158 152 144 138 240 167 200 228 259 282 292 293 295 300 307 312 311 310 310 310 309 307 306 312 325 333 336 337 339 337 337
7 3 120 120 155 288 253 161 132 97 241 178 177 169 160 148 168 165 211 262 268 275 287 291 291 296 302 304 305 306 305 306 303 298 291 290 298 310 320 328 329 331 331 330
158 124 198 77 63 291 165 114 163 219 82 169 175 172 168 159 176 223 263 270 269 280 290 288 290 293 297 299 302 302 301 302 296 287 282 283 292 305 311 318 324 326 326 325
307 180 187 175 214 248 186 195 179 160 166 167 173 175 183 189 213 261 272 264 270 284 286 286 286 288 294 299 301 300 301 298 289 280 276 280 292 302 307 314 319 323 325 325
239 198 191 60 230 213 207 205 193 202 199 188 188 188 200 217 259 272 266 266 278 286 285 287 286 290 294 299 302 302 300 294 286 280 279 285 295 301 305 312 320 322 324 324
209 151 174 271 273 262 232 229 228 230 220 208 209 216 226 253 271 272 265 276 287 285 284 283 286 293 300 300 302 300 296 292 285 282 283 291 299 303 307 314 318 320 323 324
189 180 172 217 213 191 213 216 233 228 226 224 226 231 245 264 271 267 275 283 283 285 286 287 293 296 298 296 295 293 290 285 282 281 285 293 300 304 308 311 314 318 320 321
Wind_Speed_850mb
16 8 18 18 4 10 13 14 17 15 5 13 25 20 16 32 53 51 54 54 49 41 27 25 26 25 24 21 15 9 13 17 17 14 2 8 10 14 13 12 15 18 20 25
7 18 9 11 15 11 7 13 11 9 27 10 7 17 15 32 25 40 44 44 42 32 32 33 32 31 33 32 33 28 19 7 8 5 5 3 5 9 13 12 13 19 17 20
10 4 28 14 15 23 13 14 12 16 17 17 8 4 8 12 35 43 44 41 38 36 37 38 39 41 41 42 42 39 36 28 19 7 7 7 4 4 6 12 18 23 27 29
11 14 20 16 17 19 28 12 11 29 12 9 12 5 10 12 14 25 35 37 34 34 37 42 44 47 49 49 46 45 44 42 38 32 28 25 25 28 29 26 23 20 22 23
12 14 11 11 12 17 8 31 11 21 10 10 11 7 8 25 16 15 25 32 33 33 38 42 44 45 45 44 44 44 42 42 41 37 35 33 32 30 25 22 20 21 23 24
13 12 13 14 5 9 15 22 17 15 6 7 12 9 9 11 24 17 26 30 29 31 35 40 42 42 44 43 42 41 39 41 38 35 33 32 30 28 25 26 26 29 30 31
8 9 4 10 13 20 33 26 6 6 6 5 13 6 3 6 16 34 34 35 31 30 32 35 37 39 41 40 39 39 36 37 35 32 31 31 30 28 29 31 34 36 39 42
10 9 12 6 11 17 30 11 10 12 13 8 13 14 10 7 35 45 42 39 33 29 30 33 33 34 35 35 34 32 32 31 31 30 30 31 31 35 36 37 39 40 42 46
10 1 6 4 4 14 12 16 8 9 4 8 8 6 5 11 16 37 37 35 31 26 26 29 28 29 29 28 29 28 28 29 29 30 30 31 33 34 36 38 40 42 42 44
5 7 3 2 4 5 10 16 8 4 11 6 6 9 9 23 21 19 30 34 31 27 24 25 25 25 25 24 25 24 27 29 32 33 33 35 36 37 38 40 42 43 45 47
13 2 8 7 4 9 5 8 4 8 6 8 9 7 12 32 29 25 35 34 30 26 23 23 22 21 21 20 22 24 25 27 29 30 31 32 34 34 35 37 39 41 43 46
5 5 7 7 6 3 3 7 9 8 5 4 6 4 3 24 33 46 41 33 28 22 21 18 15 13 13 19 24 25 26 25 23 25 27 29 31 32 33 35 38 41 43 46
4 5 5 7 4 7 6 4 5 9 6 3 9 6 7 35 37 44 39 31 27 22 19 13 6 4 13 23 23 22 19 21 25 29 32 33 33 34 36 39 40 42 43 44
2 8 4 6 5 6 9 7 3 8 7 7 5 16 15 24 24 38 34 29 27 25 24 15 5 6 15 17 21 25 28 31 34 36 35 34 36 38 39 38 39 39 40 42
6 8 6 4 9 8 5 11 9 5 7 8 16 32 32 26 27 44 37 32 32 29 21 13 5 10 17 23 27 29 31 32 32 32 33 35 37 38 38 37 36 37 39 41
4 4 3 15 20 13 13 9 17 8 8 13 19 4 11 34 42 38 35 32 32 30 20 11 8 17 27 29 29 29 32 34 35 37 38 38 39 38 35 35 36 38 39 41
5 9 6 4 9 11 9 5 5 6 3 14 13 11 27 21 36 41 34 31 31 31 21 11 18 28 28 28 28 30 31 31 32 33 33 34 31 26 25 25 28 32 37 39
7 6 5 5 7 4 9 2 2 5 3 8 11 22 35 40 35 29 26 25 25 28 18 17 26 30 29 28 30 32 33 34 34 34 34 29 21 18 20 26 32 37 41 45
10 7 6 8 5 8 9 7 10 9 9 8 17 17 34 34 23 11 21 19 20 21 19 27 31 29 30 30 31 33 35 37 37 36 31 22 18 17 21 26 32 38 42 47
9 12 8 7 11 10 7 5 6 8 7 33 32 34 34 27 7 8 16 14 15 20 28 32 30 30 29 29 33 35 38 39 38 34 25 19 17 19 23 28 33 39 46 51
7 8 8 3 3 13 9 12 10 12 9 35 48 48 40 11 10 13 12 18 25 27 30 31 30 30 31 33 36 39 41 39 36 29 23 20 19 21 26 30 37 44 50 55
7 8 4 5 8 10 17 10 14 4 4 30 46 45 40 20 15 11 16 25 27 28 32 31 31 31 34 36 39 41 41 38 32 26 24 22 23 26 30 34 40 46 52 58
3 10 7 13 9 8 33 6 16 4 18 29 43 44 34 24 17 16 22 25 28 32 33 33 34 33 36 39 41 42 40 36 31 28 26 26 28 31 34 39 44 50 54 60
7 12 5 6 7 22 28 26 21 16 18 35 42 42 33 26 21 26 27 29 32 34 35 36 35 35 38 40 40 40 40 36 33 32 30 31 34 36 38 42 47 53 56 60
9 17 9 8 15 7 25 39 42 36 27 34 39 38 35 30 33 32 30 31 35 36 35 34 35 36 38 39 39 39 38 35 34 35 34 35 39 41 43 45 50 55 54 56
26 15 10 11 22 23 10 28 30 40 38 39 42 43 40 38 34 29 34 37 35 34 33 35 37 41 39 40 37 37 35 35 36 36 36 39 42 43 46 50 53 50 52 49
Wind_Direction_850mb
190 165 214 179 225 139 150 151 143 185 236 11 85 69 41 58 78 77 79 82 78 73 67 66 73 75 76 80 88 127 207 226 240 242 16 334 314 311 302 320 333 316 321 317
158 223 208 198 196 225 173 149 155 110 162 102 139 76 57 55 65 81 84 81 82 79 71 73 75 74 71 73 69 68 71 101 199 200 105 46 330 347 1 8 343 320 322 332
170 212 191 208 199 205 204 167 169 134 121 103 79 34 28 45 69 77 82 84 82 81 77 76 77 75 75 73 71 68 67 71 75 85 165 144 45 349 324 322 327 330 323 314
214 257 181 203 226 195 209 122 123 139 126 172 141 201 163 126 76 69 79 82 84 87 86 83 81 79 77 74 76 74 75 76 74 69 70 67 67 62 52 46 40 34 27 25
212 173 174 192 211 175 177 135 113 91 99 125 174 150 177 142 141 119 94 90 87 85 87 85 83 82 81 82 77 75 73 71 69 68 69 68 66 60 52 46 35 27 18 6
183 186 158 186 85 120 103 103 50 63 73 206 191 137 173 181 151 130 111 103 95 92 91 88 86 86 83 79 76 73 70 69 66 59 56 53 50 44 33 27 19 14 6 1
147 162 154 153 105 111 117 135 128 133 191 189 184 126 84 93 133 135 131 118 110 104 96 91 86 81 80 78 72 69 64 61 58 53 47 43 36 27 18 11 5 357 354 350
158 194 174 187 171 168 160 170 141 162 174 154 121 168 181 156 123 130 130 125 120 110 101 91 82 78 74 70 66 62 56 53 44 37 31 25 19 15 9 3 358 353 350 347
164 91 27 95 84 156 158 208 114 78 16 101 141 116 48 154 132 132 133 130 124 115 103 94 89 81 74 67 60 50 42 34 25 19 12 8 5 0 357 353 349 345 343 339
191 130 254 327 85 34 166 159 143 110 167 142 177 176 189 176 168 157 142 137 131 125 113 103 92 83 73 60 49 33 25 16 9 1 355 355 352 349 346 342 339 339 339 337
153 22 145 103 21 161 120 149 107 121 142 141 143 228 191 175 167 159 152 144 139 135 126 114 99 82 63 44 27 7 1 358 349 343 345 345 342 341 341 339 339 339 340 337
223 104 90 113 270 261 266 143 131 132 225 48 92 275 77 155 150 148 150 145 142 140 132 119 104 82 42 14 1 348 353 351 346 345 344 348 345 346 345 346 344 342 341 337
327 117 80 109 17 355 79 47 115 104 78 182 131 228 90 130 141 154 151 148 147 144 142 132 118 43 359 347 342 342 345 351 344 345 348 348 344 346 345 345 342 340 340 338
335 62 188 151 164 149 159 163 93 113 103 161 178 148 166 154 150 153 157 156 156 154 152 161 174 333 338 339 340 345 349 344 344 343 343 341 342 344 344 344 343 342 342 343
39 79 59 51 351 116 116 132 129 93 124 143 169 170 182 171 157 161 160 162 162 165 180 191 240 317 331 335 337 338 335 333 334 335 337 339 342 342 341 342 347 353 355 356
96 122 8 26 2 66 94 98 100 89 94 70 137 125 137 160 161 158 168 175 180 179 193 209 282 328 328 328 331 332 331 332 333 334 334 335 336 338 344 352 360 2 1 359
79 132 93 314 345 0 28 247 122 123 109 143 161 193 147 146 157 167 172 185 192 194 202 244 305 319 320 321 323 323 324 324 322 323 325 326 329 338 348 358 1 1 359 356
104 81 75 159 36 42 242 141 27 148 107 120 97 146 156 158 161 164 183 190 186 198 231 283 310 314 313 312 314 317 319 318 319 320 321 325 332 346 358 360 359 356 352 349
33 103 62 120 143 282 305 216 168 156 233 204 138 127 140 143 147 181 210 209 210 220 255 294 303 301 302 307 313 316 316 316 315 316 318 320 329 340 347 349 347 345 344 343
33 59 104 65 121 185 241 181 136 94 307 189 160 158 152 144 138 240 167 200 228 259 282 292 293 295 300 307 312 311 310 310 310 309 307 306 312 325 333 336 337 339 337 337
7 3 120 120 155 288 253 161 132 97 241 178 177 169 160 148 168 165 211 262 268 275 287 291 291 296 302 304 305 306 305 306 303 298 291 290 298 310 320 328 329 331 331 330
158 124 198 77 63 291 165 114 163 219 82 169 175 172 168 159 176 223 263 270 269 280 290 288 290 293 297 299 302 302 301 302 296 287 282 283 292 305 311 318 324 326 326 325
307 180 187 175 214 248 186 195 179 160 166 167 173 175 183 189 213 261 272 264 270 284 286 286 286 288 294 299 301 300 301 298 289 280 276 280 292 302 307 314 319 323 325 325
239 198 191 60 230 213 207 205 193 202 199 188 188 188 200 217 259 272 266 266 278 286 285 287 286 290 294 299 302 302 300 294 286 280 279 285 295 301 305 312 320 322 324 324
209 151 174 271 273 262 232 229 228 230 220 208 209 216 226 253 271 272 265 276 287 285 284 283 286 293 300 300 302 300 296 292 285 282 283 291 299 303 307 314 318 320 323 324
189 180 172 217 213 191 213 216 233 228 226 224 226 231 245 264 271 267 275 283 283 285 286 287 293 296 298 296 295 293 290 285 282 281 285 293 300 304 308 311 314 318 320 321